Regional Weather Roundup
Issued by NWS

Current Version | Previous Version | Text Only | Print | Product List | Glossary On
Versions: 1 2 3 4 5 6 7 8 9 10 11 12 13 14 15 16 17 18 19 20 21 22 23 24 25 26 27 28 29 30 31 32 33 34 35 36 37 38 39 40 41 42 43 44 45 46 47 48 49 50
000
ASUS45 KSLC 051510
RWRUT

UTAH REGIONAL WEATHER ROUNDUP
NATIONAL WEATHER SERVICE SALT LAKE CITY UT
900 AM MDT SUN JUL 05 2015

UTZ001>011-023>025-051600-

NORTHERN UTAH

CITY           SKY/WX    TMP DP  RH WIND       PRES   REMARKS
BRIGHAM CITY   CLOUDY    69  61  74 NE3       30.05S
HILL AFB       LGT RAIN  70  63  78 SE3       30.07S
LOGAN          RAIN      66  62  87 CALM      30.07R FOG
OGDEN          CLOUDY    72  63  73 CALM      30.05R
PROVO AIRPORT  CLOUDY    70  59  68 S5        30.08R
SALT LAKE CITY CLOUDY    75  62  64 N3        30.03R
VERNAL         CLOUDY    70  58  65 SE3       30.11S
WENDOVER       CLOUDY    77  54  44 E10       30.04R
HEBER CITY     LGT RAIN  64  55  72 S8G16     30.14R
WEST JORDAN    CLOUDY    70  61  73 S6        30.08R

$$

UTZ012>022-026-027-051600-

SOUTHERN/CENTRAL UTAH

CITY           SKY/WX    TMP DP  RH WIND       PRES   REMARKS
BLANDING       PTSUNNY   65  59  82 CALM      30.26S
BRYCE CANYON   SUNNY     67  51  56 VRB3      30.30S
CEDAR CITY     SUNNY     77  48  35 CALM      30.15S
DELTA          CLOUDY    73  54  50 E3        30.06R
HANKSVILLE     CLOUDY    68  63  83 CALM      30.11S
MILFORD        SUNNY     76  49  38 S15       30.09R
MOAB/CYNLANDS  MOSUNNY   69  62  78 S3        30.09S
PRICE          CLOUDY    67  56  67 VRB5      30.16S
ST GEORGE      CLOUDY    81  48  32 W3        29.99S
KANAB          SUNNY     73  52  46 CALM      30.19R

$$

REGIONAL REPORTS     COLORADO/ARIZONA

CITY           SKY/WX    TMP DP  RH WIND       PRES   REMARKS
CRAIG, CO      CLOUDY    66  57  72 NE3       30.20R
GRAND JUNCTION CLOUDY    67  62  84 W7        30.12S
RIFLE          CLOUDY    67  58  72 CALM      30.15S
MONTROSE       CLOUDY    67  59  75 N5        30.19S
CORTEZ         CLOUDY    67  57  70 CALM      30.20R
PAGE, AZ       SUNNY     82  49  31 NW5       30.07R
GRAND CANYON   SUNNY     71  52  50 W7        30.28R
KINGMAN        MOSUNNY   87  51  28 E12       30.03S
FLAGSTAFF      CLOUDY    62  55  77 CALM      30.32R

$$

REGIONAL REPORTS    NEVADA/IDAHO/WYOMING

CITY           SKY/WX    TMP DP  RH WIND       PRES   REMARKS
LAS VEGAS, NV  MOSUNNY   91  47  21 S6        29.87R
ELY            SUNNY     68  48  48 S3        30.19S
ELKO           CLOUDY    68  55  63 SW14      30.12R
POCATELLO, ID  PTSUNNY   75  49  39 S14       30.00R
BURLEY         CLOUDY    69  56  62 SW20G25   29.99R
EVANSTON, WY   CLOUDY    62  56  80 CALM      30.21S
ROCK SPRINGS   CLOUDY    68  50  52 W20       30.15R
KEMMERER       LGT RAIN  59  54  82 W21G32    30.22R

$$


USA.gov is the U.S. government's official web portal to all federal, state and local government web resources and services.